User: anonymous   Login
Location: Croydon
(51.3762°N, 0.0982°W)
Time: 05:23:14
(UTC+01:00)
Language:

Hubble Space Telescope - Orbit

View from above orbital plane
View from above orbital plane
View from above satellite
View from above satellite

Ground track
Ground track

The orbit data is extracted from the following two-line orbital elements,

1 20580U 90037B   19144.89370574  .00000353  00000-0  10532-4 0  9992
2 20580  28.4706  15.9127 0002631 214.8642 270.6692 15.09227369397148
Epoch (UTC): 24 May 2019 21:26:56
Eccentricity: 0.0002631
inclination: 28.4706°
perigee height: 537 km
apogee height: 540 km
right ascension of ascending node: 15.9127°
argument of perigee: 214.8642°
revolutions per day: 15.09227369
mean anomaly at epoch: 270.6692°
orbit number at epoch: 39714

The dashed part of the orbit path shows where the satellite is in the earth's shadow,  

DLR